Location: Clermont
(50.2608°N, 4.3172°E)
Time: 20:17:45
(UTC+00:00)

Meteor 1-11 Rocket - Pass Details

Date: 13 August 2020
Orbit: 832 x 915 km, 81.2° (Epoch: 22 September)

Event Time Altitude Azimuth Distance (km) Brightness Sun altitude
Exits shadow 21:42:37 37° 152° (SSE) 1,311 4.2 -19.9°
Maximum altitude 21:44:37 56° 95° (E) 1,028 3.9 -20.0°
Drops below altitude 10° 21:50:17 10° 19° (NNE) 2,559 6.7 -20.5°
Sets 21:52:48 0° 16° (NNE) 3,515 7.6 -20.7°
